Theta_e
314 313 314 317 320 321 322 321 321 320 324 322 317 322 319 318 322 318 318 318 317 318 318 317 317 317 318 320 321 323 322 325 326 322 323 322 318 318 319 322 327 331 336 335 335 338 338 339 338 338 339 337 334 331 330 331 331 330 330 329 327 328 331 332 332 330 323 319 319 319 320 321 324 327 329 328 325 325 327 331 332 333 333 332 330 328 326 324 320 313 310 309 307 308 308 310 312
313 313 316 320 321 323 321 320 327 326 326 320 315 321 319 319 320 318 320 318 318 319 319 319 318 320 319 320 320 323 326 326 325 325 325 320 318 319 318 320 325 330 335 334 335 336 338 339 339 339 339 338 335 332 331 330 330 329 329 328 328 328 329 329 326 323 319 319 319 319 319 319 321 325 328 328 326 325 325 329 331 331 331 330 328 325 323 321 316 312 312 308 306 307 307 308 309
314 316 318 321 323 322 324 323 325 328 327 320 317 321 319 319 319 320 320 316 319 319 318 318 318 320 319 322 322 323 327 326 325 325 325 320 319 318 318 320 322 329 334 334 334 335 338 338 339 339 338 337 335 333 333 331 330 330 329 330 329 328 330 332 326 319 317 319 319 319 319 319 322 325 327 326 325 324 324 326 329 330 329 326 325 324 322 318 313 313 313 308 306 306 306 307 307
317 320 320 323 323 321 335 333 329 330 324 321 320 321 323 323 321 320 317 315 319 318 317 318 319 319 320 323 322 322 326 326 326 325 325 323 320 318 319 320 322 329 333 334 334 334 337 338 338 338 338 337 337 335 334 332 331 330 330 331 331 329 329 331 325 318 317 319 319 319 320 320 322 324 325 325 324 323 323 324 327 329 326 323 323 322 320 316 314 314 313 309 306 306 305 306 307
320 322 321 322 323 322 332 328 330 333 322 322 322 321 329 326 322 317 315 316 317 317 317 318 320 319 320 321 320 322 323 324 325 324 324 324 320 319 322 322 323 329 333 334 334 334 336 338 338 338 338 338 337 336 335 333 332 331 330 330 330 329 330 329 325 321 319 318 319 319 320 321 322 324 324 324 324 323 323 324 326 326 323 321 321 321 320 318 316 315 314 311 307 306 306 305 306
320 321 321 320 321 318 324 321 323 328 321 324 322 321 327 321 318 315 314 316 316 317 317 317 319 319 321 321 321 323 322 322 322 322 323 324 321 321 325 324 325 330 333 334 333 334 334 337 338 338 338 338 338 337 336 334 332 332 331 330 328 328 330 330 329 326 323 320 320 320 321 321 322 324 324 325 325 323 323 324 325 323 322 322 322 322 321 319 318 316 314 313 308 306 306 305 306
320 321 320 322 321 317 326 325 320 323 317 318 322 323 320 315 315 314 313 316 316 316 317 318 317 319 321 321 321 322 322 321 320 320 321 323 323 323 326 326 328 330 333 333 333 334 334 335 337 338 338 338 338 337 336 335 333 332 332 331 329 328 327 329 330 329 327 325 324 323 322 322 323 324 325 326 326 324 323 324 324 323 323 323 322 322 321 320 320 316 314 313 309 306 306 305 305
321 321 319 326 328 325 330 324 320 324 316 311 316 320 316 314 314 313 314 314 316 316 317 318 316 319 319 318 320 320 321 321 319 319 320 321 324 326 327 328 328 330 333 333 332 333 333 334 335 336 336 337 337 337 336 336 334 333 333 332 330 329 327 327 328 328 327 326 325 324 324 324 324 325 327 327 327 327 326 326 325 324 324 322 322 322 322 323 322 318 314 313 310 306 305 305 305
320 321 320 327 329 329 331 320 317 319 316 314 313 315 315 314 313 313 314 313 314 315 317 317 316 318 318 318 320 319 320 320 320 320 320 321 325 327 328 331 329 329 332 332 333 333 333 334 334 334 335 336 337 337 337 336 336 334 333 332 331 330 329 329 328 326 326 325 325 325 325 325 325 326 328 328 328 329 329 329 327 327 325 324 324 323 324 324 323 319 314 313 310 306 305 304 304
320 321 318 326 328 325 324 318 321 320 316 316 312 314 315 313 313 313 314 313 314 315 316 316 316 318 318 319 319 318 319 320 319 320 321 321 325 327 329 333 330 330 333 333 333 333 335 335 335 336 335 335 336 337 337 336 336 335 334 334 332 331 330 330 330 328 327 326 325 326 326 326 326 327 328 328 328 329 329 329 328 328 327 327 326 324 324 324 324 319 314 313 311 307 305 304 303
320 319 319 333 333 323 322 320 322 321 317 316 313 314 315 314 314 313 314 314 315 316 316 315 317 318 317 317 317 317 318 320 320 321 321 321 323 326 329 332 333 333 331 331 333 333 334 337 336 336 336 335 336 337 337 337 336 336 335 334 333 332 331 330 330 330 328 327 327 327 326 327 327 327 327 327 328 328 328 328 328 329 329 328 326 323 324 325 324 321 316 313 311 308 305 304 303
318 320 331 340 331 327 327 321 320 320 318 317 315 315 315 314 314 314 314 315 315 315 315 316 318 318 316 316 316 316 316 319 321 322 322 320 322 325 328 331 336 334 328 331 336 334 331 334 335 336 336 335 335 336 336 337 336 336 335 334 334 333 332 331 330 330 329 329 328 328 327 327 326 326 326 326 327 328 327 327 326 328 329 328 324 323 325 326 325 323 319 315 312 310 308 306 304
317 322 341 332 320 328 327 320 321 321 319 317 315 315 315 314 315 315 314 315 314 315 315 315 317 317 317 315 316 315 314 317 319 321 320 320 321 323 327 332 335 332 333 338 335 335 334 333 334 333 335 335 335 335 335 337 337 336 336 335 335 334 333 332 330 330 329 329 328 328 327 326 326 326 326 326 327 327 326 325 325 327 329 327 324 323 326 326 326 324 322 319 316 314 311 309 308
316 320 339 326 315 323 321 319 320 318 320 319 315 313 316 315 315 315 314 316 314 314 315 315 316 317 317 315 315 314 312 314 315 317 318 318 318 319 325 330 332 327 332 338 333 335 336 338 338 330 331 334 334 335 335 336 336 336 336 336 336 334 334 333 331 330 330 330 329 327 326 325 325 325 325 325 326 326 326 326 325 326 328 326 324 324 326 327 326 325 324 322 320 318 316 314 312
317 315 330 327 317 321 319 321 321 319 323 320 316 314 315 315 315 315 315 317 315 314 315 315 317 316 316 317 316 314 312 313 313 315 315 316 316 317 320 324 327 323 324 329 328 329 329 333 334 325 327 332 333 335 335 336 335 335 336 336 336 335 334 333 332 331 331 330 329 327 325 324 324 325 325 324 325 326 326 327 327 327 327 326 325 325 326 327 327 325 324 323 321 321 320 319 318
317 316 329 328 318 320 319 319 320 321 322 317 315 315 315 315 315 315 315 316 315 314 314 315 316 315 315 316 316 313 312 313 312 313 313 314 315 315 317 318 319 320 319 320 320 322 323 322 326 327 325 328 335 335 334 335 334 334 335 335 335 335 335 334 333 332 331 330 329 327 325 324 323 323 324 324 324 326 326 327 328 328 327 326 326 326 327 328 327 326 325 323 322 322 322 321 320
316 321 335 329 318 319 319 319 320 322 324 316 313 315 315 316 315 315 316 315 315 314 314 315 315 315 315 315 316 313 313 313 312 313 313 312 313 313 315 316 316 316 317 316 315 318 320 319 325 332 326 326 339 338 333 334 335 335 334 334 335 335 335 334 334 333 332 331 329 328 326 326 324 323 323 324 324 325 326 327 328 328 328 327 326 326 327 328 327 325 325 324 322 322 322 322 321
321 333 335 323 319 319 319 321 317 318 323 315 313 315 315 316 315 315 315 315 315 314 314 315 315 315 315 315 315 314 313 313 313 313 313 313 313 313 313 314 315 315 314 314 314 315 317 318 321 326 322 324 335 337 333 332 336 337 333 334 334 334 335 334 334 333 332 331 330 329 328 328 325 323 323 324 325 325 327 329 328 328 328 328 327 327 327 327 327 325 325 324 323 323 323 322 321
322 334 333 323 324 320 315 317 313 314 318 314 314 315 314 317 315 315 316 314 314 314 314 313 314 314 315 315 315 314 313 313 313 313 313 313 313 313 313 313 314 314 314 314 314 314 314 316 316 317 318 321 326 330 331 331 335 335 332 333 334 334 335 334 334 333 332 331 331 331 331 330 327 325 325 324 326 327 328 328 328 328 328 328 327 327 326 326 326 324 325 324 323 323 323 323 322
316 326 331 324 321 317 313 314 314 315 315 314 314 314 314 316 315 315 315 314 313 314 315 313 314 315 314 315 315 315 314 313 313 313 313 313 314 313 313 314 313 314 314 314 314 315 314 314 315 315 316 318 319 324 328 330 331 333 332 332 333 334 334 334 333 332 332 332 332 332 332 332 329 328 329 328 328 329 328 328 327 328 329 329 328 327 325 325 325 324 325 324 323 324 324 323 322
314 322 328 319 314 315 315 314 315 316 315 315 314 314 315 315 316 315 314 315 315 314 315 315 315 316 315 315 315 315 314 313 313 313 314 313 314 314 314 314 314 314 313 314 314 314 315 314 314 314 315 316 316 319 322 324 328 332 332 331 332 333 333 334 333 332 332 331 332 331 331 332 331 331 330 330 331 330 330 329 328 329 330 329 329 328 326 326 326 326 326 324 324 325 323 324 323
316 316 317 314 312 315 316 314 315 315 315 315 314 315 316 315 315 315 314 318 318 315 315 316 316 316 316 315 314 315 313 313 313 313 314 314 314 313 314 314 314 314 313 313 314 314 314 314 314 314 315 315 316 317 317 321 326 328 328 329 330 331 332 332 332 332 331 331 331 331 331 332 331 331 330 331 332 332 331 331 330 330 330 330 329 328 328 327 327 327 326 325 325 325 324 323 324
320 316 312 313 313 315 316 315 316 315 315 315 314 315 315 314 315 315 314 316 317 315 316 316 316 316 315 315 314 314 314 313 313 313 314 314 314 314 314 314 313 313 313 313 313 313 313 313 314 314 315 315 316 317 316 320 323 325 328 328 328 328 329 331 332 331 331 331 330 331 331 331 331 331 331 332 332 331 331 330 330 330 330 330 329 328 328 327 327 328 327 326 326 325 323 323 323
322 319 313 314 314 315 316 315 316 316 316 316 315 315 314 315 315 314 313 315 316 315 316 315 316 316 315 315 314 313 313 313 313 313 314 314 314 314 314 313 313 313 313 314 313 313 313 313 313 312 314 315 316 317 317 319 319 324 329 328 326 325 325 328 330 331 330 331 330 330 331 331 332 331 332 332 331 331 330 330 329 329 329 329 329 329 329 328 328 328 327 326 326 325 324 323 322
319 319 314 315 315 315 316 316 316 316 315 315 315 315 314 315 314 313 314 315 315 315 316 315 316 315 315 314 314 313 313 313 313 313 313 313 314 314 314 313 313 313 313 314 313 314 314 313 313 312 313 314 316 317 319 321 320 323 324 326 330 329 327 325 326 329 329 330 331 331 331 331 332 332 332 332 331 331 330 329 329 328 329 329 329 330 329 329 329 328 327 326 326 326 325 324 323
316 316 315 315 315 315 316 316 316 315 315 315 315 315 314 314 314 314 315 315 315 315 315 315 316 315 315 314 313 313 313 313 312 312 312 313 313 313 313 313 313 313 314 314 314 314 314 313 313 312 312 314 316 318 320 321 322 323 321 326 334 333 331 328 327 328 327 329 331 331 331 332 332 331 331 331 331 331 330 329 329 329 329 329 329 330 330 329 329 328 327 326 326 326 325 323 323
315 315 315 315 315 315 316 315 316 315 314 314 315 315 314 313 314 316 316 315 315 315 315 314 315 315 315 315 314 313 312 313 312 312 312 312 313 313 313 313 313 313 313 314 314 313 314 313 313 313 312 313 316 317 319 321 321 323 322 328 334 333 332 332 331 330 327 327 329 330 330 331 331 330 329 330 330 330 329 328 327 328 328 327 328 329 329 329 328 327 327 327 327 326 324 323 322
315 315 316 315 314 315 316 314 314 314 314 314 315 314 313 312 314 316 315 315 315 314 314 314 314 315 314 314 314 313 312 312 312 312 312 312 312 312 312 313 313 314 314 313 314 314 313 313 313 313 312 314 317 318 321 323 323 324 323 325 328 327 329 330 328 327 327 327 328 328 329 329 329 329 329 329 328 328 327 326 326 326 326 327 328 328 328 328 328 328 327 326 326 325 324 323 322
315 315 318 320 319 319 315 313 313 314 315 314 314 315 316 315 314 315 315 315 315 313 314 314 314 314 313 313 313 313 313 312 312 311 311 311 311 312 312 313 313 313 313 313 314 313 313 313 313 313 313 316 319 321 323 325 326 326 324 326 327 325 328 329 325 325 326 326 327 328 327 328 328 328 328 327 327 326 326 326 325 325 326 327 327 327 327 327 327 326 326 325 325 324 323 323 321
316 314 316 323 324 324 315 311 313 313 314 314 314 319 326 323 315 313 314 314 314 313 313 313 313 313 312 312 312 312 312 312 312 311 311 311 311 312 312 313 313 313 313 313 313 313 313 313 313 314 313 316 321 322 324 325 326 327 325 328 330 328 328 327 324 326 328 326 326 327 326 327 328 327 327 326 325 324 324 325 324 323 326 327 326 325 324 324 324 324 324 325 324 323 322 321 321
320 313 319 325 321 328 321 310 313 315 314 313 314 319 325 325 316 313 314 313 313 313 313 312 312 312 312 312 312 312 312 312 312 311 311 311 312 313 312 313 313 313 313 313 313 313 313 313 313 314 314 318 323 323 325 326 326 327 326 326 328 327 326 325 325 326 326 326 327 327 326 326 326 326 326 324 323 324 324 324 322 323 325 326 324 323 322 322 322 323 323 323 322 321 320 320 319
325 316 325 328 318 331 329 310 311 317 314 311 315 320 321 321 315 312 313 312 313 313 313 313 312 312 311 312 312 312 312 311 311 311 311 312 312 312 312 312 312 312 312 312 312 312 312 313 314 316 317 320 324 324 325 326 326 327 327 329 329 327 326 326 327 326 325 325 326 327 327 326 326 325 324 322 323 324 324 322 321 323 325 324 323 322 322 322 322 322 321 321 320 319 317 316 316
332 321 324 329 321 326 327 314 310 312 313 312 314 320 323 320 312 311 312 311 312 311 312 312 312 312 311 312 312 311 311 311 311 312 312 312 312 312 312 312 312 312 312 312 312 312 312 313 314 316 318 322 324 324 324 324 326 326 326 328 329 327 327 327 326 325 325 326 326 326 327 326 325 323 322 322 322 322 322 321 321 323 323 322 322 322 321 321 321 320 319 317 314 311 309 309 308
332 321 320 328 325 321 323 323 314 309 313 315 314 316 320 318 311 311 312 311 311 310 311 312 312 312 311 311 311 311 311 311 312 312 312 313 312 312 311 312 312 312 312 311 312 313 313 314 315 315 318 321 321 321 323 325 327 325 323 325 325 324 326 326 324 324 325 325 325 324 324 323 321 320 320 321 321 321 322 322 323 323 322 322 321 321 320 320 318 316 313 309 305 304 304 303 304
331 325 324 326 323 319 322 325 316 311 314 315 315 315 316 316 312 310 312 311 311 311 312 312 311 312 312 311 311 311 311 311 312 312 312 312 312 312 311 311 312 311 311 311 312 313 313 315 316 317 319 320 320 321 323 324 326 325 324 325 324 323 323 323 323 323 324 323 322 321 320 320 320 320 321 321 322 322 322 322 322 321 321 320 319 319 317 314 311 307 305 303 302 301 301 301 302
331 332 331 327 323 322 323 325 317 312 315 316 316 316 316 316 314 312 311 311 310 311 312 310 310 311 311 311 311 311 311 312 312 311 311 311 311 311 311 311 311 311 311 311 312 314 315 317 318 319 322 323 322 323 322 322 325 325 325 325 325 323 322 322 321 321 322 321 321 320 319 320 320 321 321 321 321 321 321 321 320 320 318 316 314 312 309 306 304 302 301 301 300 300 300 300 301
324 326 326 324 324 323 322 324 317 310 314 320 317 315 316 315 316 313 310 309 308 308 308 308 310 311 311 312 311 311 311 312 311 310 310 310 310 310 310 311 311 311 311 311 312 314 314 316 317 317 320 324 322 320 320 323 325 323 322 323 323 322 321 319 319 321 321 320 320 320 320 321 320 320 319 319 320 320 320 319 318 315 311 308 306 305 303 302 301 300 300 299 298 298 299 299 300
319 321 321 322 323 322 319 319 317 311 314 322 318 315 315 313 314 312 309 308 308 308 308 309 310 310 311 312 311 312 311 311 310 310 310 310 310 310 310 311 311 311 311 311 313 315 315 315 316 315 317 321 321 321 322 323 323 322 322 321 320 320 318 318 320 321 320 320 320 319 319 319 318 318 317 317 317 317 317 315 312 308 304 303 302 301 300 300 299 298 298 297 297 297 297 298 298
318 319 318 321 322 321 320 318 316 312 314 323 322 316 316 315 314 311 308 308 310 311 311 312 312 311 311 311 311 311 311 310 310 310 310 310 310 310 310 311 311 311 311 312 312 314 316 317 317 315 317 320 322 322 322 321 320 321 322 320 320 319 318 319 320 320 320 320 319 319 318 317 316 315 314 313 312 311 309 307 305 303 301 300 300 299 299 298 298 297 297 297 297 296 296 296 296
319 319 318 321 321 320 324 321 316 315 315 319 320 317 315 314 314 314 311 310 311 312 312 313 313 312 312 312 312 312 311 311 310 310 310 309 309 309 310 311 311 310 311 312 312 312 316 318 317 317 318 320 322 322 322 321 321 321 321 320 319 318 317 319 320 319 319 319 318 318 316 313 311 310 308 306 305 304 303 302 301 300 300 299 298 298 298 298 297 297 297 296 296 296 296 295 295
321 320 318 320 321 320 322 322 320 321 320 317 318 320 321 321 320 317 315 312 311 312 312 312 312 313 313 312 312 311 311 311 311 310 310 310 309 310 310 310 311 310 311 311 311 311 315 317 317 318 318 319 321 322 322 322 322 321 320 319 318 317 317 318 319 318 318 318 317 314 311 307 305 304 303 302 301 301 300 299 299 299 299 298 298 298 298 298 298 297 297 297 296 296 295 295 294
323 323 320 318 321 321 320 320 319 324 327 320 318 324 331 333 329 324 323 320 318 314 310 311 313 313 312 311 312 311 310 310 311 311 310 310 310 309 310 310 310 310 310 310 310 311 313 315 318 319 318 318 321 321 321 321 321 320 318 317 316 317 318 318 317 318 317 315 312 308 305 303 302 302 301 300 299 299 299 298 298 298 298 298 298 298 298 298 297 297 297 296 296 296 295 294 294
323 324 321 318 318 319 319 319 320 325 328 319 316 323 328 327 324 326 329 329 326 320 312 311 312 313 312 312 313 311 310 310 310 310 310 310 310 309 310 310 311 311 310 310 311 312 312 314 318 320 318 318 320 320 319 319 319 319 317 315 315 316 317 317 316 316 314 310 306 303 302 301 300 300 299 299 298 298 298 298 298 298 298 298 298 297 297 297 296 296 296 296 296 295 294 294 294
326 323 320 320 317 318 319 319 321 325 324 320 320 322 322 322 321 323 324 324 324 322 317 314 312 312 313 314 314 312 311 311 310 310 309 309 310 310 310 311 311 311 310 310 311 313 313 312 315 319 318 317 317 318 318 317 317 317 316 314 315 316 317 316 315 313 309 305 302 302 301 300 299 299 298 298 297 297 297 297 297 297 297 297 297 296 296 296 296 296 295 295 295 295 294 294 294
325 318 317 320 319 321 322 321 323 321 320 325 326 320 320 325 327 324 320 321 324 323 321 318 314 314 314 314 315 313 312 311 311 310 310 310 310 310 310 310 311 310 309 310 312 313 313 313 313 315 316 316 315 316 316 315 316 315 314 314 315 316 316 314 311 307 304 302 301 300 300 299 299 298 298 297 297 297 297 297 297 297 297 296 296 296 296 296 296 295 295 295 294 294 294 294 293
316 313 317 320 321 323 325 325 325 323 321 324 326 322 321 325 328 326 320 323 327 323 321 318 314 314 315 315 314 313 311 310 309 310 310 310 310 310 310 309 310 310 309 310 312 313 313 314 313 313 315 315 314 315 315 315 315 314 313 313 315 316 315 311 306 303 301 300 300 300 299 299 298 298 297 297 297 297 297 297 297 296 296 296 296 296 296 296 295 295 295 294 294 294 293 293 292
312 318 325 325 326 326 327 326 324 325 324 323 324 324 322 324 328 327 323 326 329 324 323 323 317 314 315 315 314 313 311 310 309 309 309 309 309 309 309 309 309 310 310 311 312 312 312 314 314 313 315 315 314 315 315 314 313 313 314 314 315 315 313 307 303 302 301 300 300 300 299 298 298 298 297 297 297 297 297 297 296 296 296 296 296 296 296 296 295 295 294 294 293 293 293 292 292
315 329 331 327 329 326 326 326 324 326 326 323 323 321 319 323 327 327 323 323 325 322 324 328 324 317 315 315 314 313 312 310 310 309 308 308 308 308 308 308 309 310 310 311 312 311 310 314 315 313 314 314 314 314 313 313 313 313 314 315 315 314 309 305 303 303 301 300 300 299 299 298 298 297 297 297 297 297 296 296 296 295 296 296 296 296 295 295 295 294 294 293 293 292 292 291 291
319 329 326 324 327 325 326 326 324 325 323 318 317 318 319 321 323 323 322 322 322 317 315 318 318 315 315 315 314 313 312 311 310 309 309 308 308 308 308 308 309 310 309 310 311 310 310 313 315 313 312 313 314 313 312 313 313 314 314 314 315 312 305 303 303 302 302 301 300 300 300 299 298 298 297 297 297 297 296 295 295 295 295 296 296 295 295 294 294 294 293 293 292 292 291 291 290
319 323 324 325 326 327 331 328 323 324 321 315 313 317 321 321 322 323 321 320 319 315 312 313 313 314 315 314 314 314 312 312 311 310 310 309 309 309 308 308 309 309 309 309 310 310 310 311 313 312 312 313 313 313 312 313 314 313 313 313 312 308 303 302 302 301 301 301 300 300 299 299 298 298 298 297 297 297 296 295 295 295 295 295 295 295 294 294 293 293 292 292 291 291 291 290 290
318 321 322 324 326 329 332 329 327 326 325 318 313 319 326 327 328 324 315 312 314 314 315 314 313 313 313 312 313 313 312 312 311 310 310 310 309 309 308 308 308 309 309 309 310 310 310 310 311 312 312 312 313 312 313 314 313 313 312 312 309 305 302 301 300 300 301 300 300 299 298 298 297 297 297 297 297 296 296 295 295 295 295 295 295 294 293 293 292 292 291 291 291 290 290 290 289
317 319 321 323 325 326 324 323 323 322 323 322 318 321 326 325 325 319 312 312 313 312 311 312 313 312 311 310 311 312 312 312 311 310 310 309 309 309 308 308 308 309 309 309 310 310 310 310 311 312 312 312 313 313 313 313 312 312 311 309 306 302 301 300 300 299 299 299 299 298 297 297 297 297 297 296 296 296 295 295 295 295 295 295 294 293 293 292 291 291 291 290 290 290 290 289 289
319 318 321 320 318 320 322 320 317 316 321 323 321 323 325 323 322 319 316 319 318 314 312 310 311 311 309 309 310 311 312 312 311 311 310 310 309 308 308 308 308 309 309 309 309 309 310 310 312 312 312 312 313 313 313 313 312 311 309 306 303 301 300 299 299 299 298 298 298 297 297 296 296 296 296 296 296 296 295 295 294 294 294 294 294 293 292 291 291 290 290 290 290 289 289 289 289
321 321 320 317 316 321 325 323 322 322 324 323 321 323 324 323 325 322 318 319 320 320 317 311 308 309 309 309 310 310 311 312 311 311 310 309 309 308 308 308 308 308 309 309 309 309 310 310 312 313 311 312 312 313 313 312 310 309 307 304 302 300 299 298 298 298 298 298 297 297 296 296 296 296 296 296 296 296 295 294 294 294 294 294 293 292 291 291 290 290 290 289 289 289 289 289 288
318 321 318 318 324 325 323 323 326 327 325 325 323 321 320 321 322 322 320 321 324 322 319 316 312 309 308 309 309 310 311 311 310 310 310 309 309 308 308 308 308 308 308 309 309 309 310 311 313 313 311 311 312 313 312 310 308 307 304 302 301 299 298 298 297 297 297 297 297 297 296 296 296 296 296 296 296 295 295 294 294 294 294 293 292 292 291 290 290 290 289 289 289 289 289 288 288
313 315 314 318 324 323 322 323 323 325 325 326 325 322 321 321 321 324 322 322 325 324 324 325 318 311 309 309 309 310 311 311 311 311 310 309 309 308 308 308 308 308 308 309 309 309 310 311 313 313 312 311 312 312 311 309 306 304 303 301 300 298 297 297 297 297 297 297 297 297 296 296 296 296 296 296 295 295 294 294 294 294 293 293 292 291 290 290 290 290 289 289 289 289 288 288 288
316 318 317 317 318 319 321 321 320 324 326 326 326 324 323 323 321 323 322 321 322 324 328 327 317 311 312 310 309 311 311 312 312 312 311 310 309 308 308 307 307 307 307 308 309 310 310 311 312 312 311 311 312 312 310 307 304 303 301 300 299 298 297 296 296 296 296 297 297 296 296 296 296 296 296 296 295 295 294 294 294 293 293 292 292 291 290 290 290 290 289 289 289 289 288 288 288
317 318 319 318 317 319 321 321 319 321 323 325 326 323 324 327 322 320 324 327 323 319 320 319 313 310 313 313 311 312 311 312 312 312 311 310 309 308 308 307 307 307 307 308 310 311 311 311 312 312 311 311 311 311 309 306 303 302 301 299 298 297 296 296 296 296 296 296 296 296 296 295 295 296 296 296 295 295 294 294 293 293 293 292 292 291 290 290 290 289 289 289 289 289 288 288 288
Wind_Speed
4 3 2 3 3 3 0 1 2 4 4 2 2 1 2 2 2 2 0 1 1 4 7 9 9 10 10 11 13 12 8 3 4 3 4 6 7 7 5 7 7 9 11 12 12 11 9 8 8 8 8 6 7 6 5 6 7 7 8 10 11 10 10 9 8 9 10 10 9 9 10 11 11 11 11 11 11 11 10 10 11 12 13 14 14 14 15 16 16 17 17 16 14 10 8 6 5
3 3 4 5 2 1 2 2 2 3 5 3 2 2 2 3 1 5 4 1 5 9 18 20 17 17 16 16 14 13 10 6 5 7 8 9 9 7 6 7 9 11 12 14 12 11 10 9 8 8 7 6 6 6 6 6 6 7 8 9 10 10 10 9 9 10 10 10 9 9 9 9 10 10 10 10 10 10 8 8 9 10 11 13 13 15 16 17 17 18 18 17 15 11 9 7 6
3 4 5 5 2 2 2 4 3 2 5 2 3 3 2 0 4 6 5 5 13 16 16 14 12 10 8 8 6 6 5 6 9 10 10 10 9 8 8 9 12 12 12 14 13 11 10 9 9 8 7 6 6 7 6 6 7 7 7 8 9 9 9 8 9 10 10 10 8 8 9 9 10 10 10 10 10 9 7 6 7 9 11 12 13 14 16 16 17 17 17 17 16 13 11 10 8
4 4 4 4 2 3 3 4 3 4 3 3 3 4 3 4 7 6 4 7 15 13 7 6 6 5 6 7 5 5 5 6 8 10 10 10 9 8 9 11 14 15 14 15 14 12 11 9 9 8 8 7 7 6 6 6 6 6 7 7 8 8 8 8 8 9 9 9 8 8 8 8 9 9 10 10 9 8 7 6 6 8 10 11 12 14 15 15 16 16 17 17 16 14 13 12 11
5 5 2 4 2 1 4 3 3 4 3 5 3 5 5 6 7 6 2 5 12 10 5 5 4 5 9 7 4 4 5 7 7 8 10 11 8 8 10 10 14 17 16 16 15 13 11 10 9 8 8 7 7 6 6 5 5 5 6 6 7 8 8 8 8 8 8 8 8 7 7 8 8 8 9 10 9 9 9 8 7 7 9 10 12 13 14 15 15 16 17 17 16 15 14 14 13
6 5 3 3 3 3 4 3 3 2 4 6 4 5 6 7 8 5 5 6 8 10 8 6 7 7 7 7 5 5 7 7 7 8 11 12 9 8 10 10 13 16 17 17 15 13 11 10 9 8 8 8 7 6 5 4 4 4 5 5 5 6 8 7 7 7 7 7 7 6 6 6 7 7 8 9 9 9 10 9 8 8 9 10 12 14 15 16 16 17 17 17 17 15 15 15 15
5 4 3 6 5 4 3 4 4 2 3 6 4 5 7 9 9 6 5 5 5 6 6 8 12 10 5 4 5 5 8 7 8 11 12 13 10 9 11 11 12 15 16 17 16 14 11 10 9 8 8 8 7 6 5 4 3 3 3 4 5 5 6 6 6 6 6 7 6 6 5 6 6 6 8 9 9 9 9 10 9 9 10 11 13 15 16 17 18 18 18 17 17 16 15 16 16
4 3 2 5 4 5 4 3 3 3 2 4 4 5 9 10 10 7 3 3 3 3 9 13 10 5 3 3 2 5 7 7 10 12 12 12 11 10 12 12 12 14 16 18 17 15 13 10 9 9 8 8 7 7 6 5 4 3 3 4 5 5 5 5 5 4 5 6 6 6 5 5 5 6 7 8 8 8 8 9 9 10 11 12 14 15 17 19 20 20 19 17 17 16 16 16 16
4 3 3 5 3 3 3 2 1 2 2 4 4 4 7 10 10 6 4 3 3 5 11 12 3 2 6 4 4 7 7 9 12 12 12 12 11 10 11 13 12 13 15 17 18 15 13 12 11 10 10 9 9 8 7 7 6 5 5 5 5 5 5 6 5 4 4 4 5 5 4 4 4 5 6 7 7 6 7 7 8 10 11 13 14 16 18 19 21 21 19 17 17 16 15 15 15
3 2 4 4 3 4 3 1 1 2 3 4 3 4 6 10 8 5 6 4 4 5 7 8 2 4 10 6 6 9 9 11 13 12 12 11 11 10 11 13 12 12 14 16 16 15 13 12 12 11 11 11 10 10 10 9 8 6 6 6 6 5 5 6 6 5 4 4 4 4 3 3 4 4 5 5 6 5 5 6 7 8 10 12 14 15 16 18 19 20 20 17 16 16 15 15 14
2 3 4 5 4 2 2 3 2 3 4 4 3 4 6 11 8 5 6 6 4 4 6 5 3 10 10 6 7 9 11 13 14 13 12 11 12 11 12 12 12 12 13 14 14 14 13 12 12 11 12 11 11 11 11 11 9 8 7 6 6 6 5 6 6 6 5 4 4 4 3 3 4 3 3 3 4 5 4 5 6 7 8 10 12 14 15 17 18 19 20 18 16 16 16 15 15
1 2 4 4 3 3 4 4 4 4 4 3 2 5 6 10 9 6 7 7 5 5 6 2 6 13 7 2 8 11 12 14 14 13 12 12 12 12 12 13 14 12 11 14 14 14 13 14 13 12 13 12 12 12 11 11 9 10 9 8 7 7 7 6 6 6 6 6 5 5 4 3 3 2 2 2 2 4 4 6 6 6 6 8 11 12 13 15 15 17 18 18 17 17 17 17 16
3 2 5 3 3 3 4 4 3 1 3 3 5 4 6 10 10 11 11 9 6 6 3 3 10 11 4 2 8 13 13 14 14 13 13 12 13 13 13 15 16 14 14 16 15 16 15 15 16 16 16 15 14 13 13 12 10 11 10 9 9 8 8 7 7 7 6 6 5 5 4 2 2 1 2 2 2 3 3 4 4 4 4 6 9 9 11 12 13 15 17 17 18 18 19 19 19
4 4 5 3 2 3 5 3 2 2 3 6 4 4 6 7 9 13 14 8 2 4 3 7 13 7 3 4 8 16 15 14 15 13 15 14 14 14 15 17 18 17 18 20 17 18 17 17 19 19 18 17 16 15 14 13 12 11 10 10 10 9 9 8 8 7 7 7 5 4 3 2 2 1 1 2 2 2 2 3 3 3 3 4 6 8 10 10 11 13 15 16 17 19 19 20 20
5 4 5 4 2 2 3 2 2 5 5 4 4 5 6 6 8 12 12 7 3 7 7 10 14 4 3 7 8 19 18 14 15 14 16 15 15 15 16 18 19 18 17 19 18 17 17 18 19 18 18 19 17 16 15 14 14 12 11 12 11 10 10 10 10 9 8 8 6 5 4 4 3 3 3 2 3 3 2 2 2 2 2 4 5 7 8 8 10 11 13 14 16 18 19 19 19
5 4 5 4 2 2 3 2 3 3 5 4 7 7 6 5 8 9 6 5 7 10 8 8 13 6 5 10 9 17 18 14 14 14 17 16 16 16 17 18 18 19 17 18 17 16 16 15 15 14 17 17 16 18 18 17 15 14 13 12 12 11 11 11 11 10 10 9 8 7 6 6 4 4 4 3 3 3 3 3 2 1 2 3 4 5 7 7 8 9 11 13 14 16 17 17 17
4 4 5 3 3 4 4 4 4 4 5 5 8 10 6 3 6 6 4 6 9 11 9 8 13 11 8 12 10 17 19 14 14 15 17 17 17 18 18 19 18 19 18 18 17 16 17 15 15 16 17 18 19 21 22 19 14 14 16 15 13 11 11 11 11 11 10 9 8 8 8 6 5 6 5 4 4 3 3 3 2 1 1 2 2 4 5 5 6 7 9 11 13 14 14 15 15
3 3 4 3 3 3 5 7 7 4 3 7 10 11 8 5 6 8 5 5 8 9 9 9 11 11 11 12 11 18 20 15 15 15 17 18 18 18 18 19 19 19 18 18 17 17 17 16 17 18 17 20 22 22 22 19 16 16 19 17 15 13 12 11 11 11 9 9 8 9 7 6 6 6 6 5 5 4 4 4 3 2 1 1 2 2 3 3 4 6 7 9 11 11 11 13 14
3 3 4 3 5 3 4 7 9 3 2 9 10 10 9 8 10 11 5 4 7 6 6 8 10 11 12 13 13 18 20 17 17 16 17 17 17 18 17 18 18 18 17 17 17 16 17 16 17 17 17 20 23 23 21 20 21 21 20 19 17 15 14 13 12 11 10 10 10 9 7 7 6 6 7 5 5 6 5 5 4 3 3 1 2 2 2 2 3 4 6 8 10 9 8 11 13
2 4 3 4 6 3 3 5 10 7 4 10 10 8 8 8 11 10 6 4 5 6 8 9 11 14 14 14 16 19 19 18 18 17 18 17 17 17 17 17 17 17 17 16 16 16 17 16 16 16 16 18 20 22 22 22 23 23 21 20 19 17 16 15 13 12 12 12 12 9 7 8 6 6 7 5 6 8 6 5 3 4 4 3 2 2 2 3 3 3 5 8 9 8 7 10 12
2 4 3 5 6 2 2 4 7 8 7 11 10 6 6 8 11 10 7 5 4 11 16 15 13 14 15 16 17 19 19 19 19 19 18 18 17 16 15 15 15 15 15 15 16 16 16 16 16 16 16 17 17 19 20 21 22 22 22 21 19 19 18 18 16 15 15 15 13 10 9 9 7 8 8 6 8 9 7 4 2 3 4 4 4 1 1 2 2 2 5 6 6 6 7 9 10
3 1 1 5 7 2 3 5 5 8 9 10 9 6 6 9 9 10 11 7 6 11 15 16 15 13 14 16 18 19 20 20 20 19 19 18 17 15 14 13 13 13 13 14 15 15 16 16 16 17 18 18 17 18 18 18 21 22 20 18 18 20 19 19 18 18 18 17 15 13 12 11 9 9 9 7 8 9 8 5 3 4 6 6 5 3 1 1 0 2 4 4 4 4 6 7 8
2 1 1 4 6 3 6 7 7 9 10 9 8 6 7 8 6 8 14 13 11 10 10 12 15 15 13 16 18 19 20 20 19 19 18 17 16 15 13 12 11 11 12 13 13 14 14 15 16 17 19 19 19 19 18 19 20 18 16 16 18 20 21 21 19 19 19 17 16 15 13 12 11 10 10 9 9 9 7 6 5 5 8 8 6 4 2 1 1 1 3 2 2 3 5 5 6
4 1 1 3 4 4 8 7 7 9 8 9 8 6 7 9 6 5 13 19 17 15 12 11 14 16 15 16 18 18 19 19 19 18 18 17 16 15 14 12 11 11 11 11 11 11 12 13 15 17 19 20 20 20 19 20 19 17 17 17 17 18 19 21 20 21 19 17 17 15 12 11 11 11 11 11 10 9 8 7 6 5 7 8 7 7 5 4 4 2 2 1 2 3 4 6 5
5 2 2 3 2 5 8 7 8 8 7 8 8 7 8 9 7 6 13 17 17 18 16 13 13 16 17 18 18 18 18 18 18 19 19 18 18 16 15 13 12 12 11 11 11 11 11 11 13 16 18 20 21 22 21 20 19 19 18 16 18 19 18 17 18 20 19 17 16 13 12 12 12 11 10 10 10 10 8 7 6 5 6 7 8 9 8 7 6 4 2 1 0 1 4 7 5
1 4 3 2 2 5 7 8 9 8 8 8 7 6 7 8 5 9 16 17 16 16 15 14 14 16 18 18 18 18 18 18 18 19 19 20 19 18 16 14 13 13 12 12 12 12 11 11 12 15 18 21 22 23 23 22 22 21 17 16 20 20 15 14 15 17 18 17 16 14 14 13 12 11 9 9 10 10 9 8 8 6 7 7 7 10 10 9 8 4 2 2 2 3 6 7 6
3 3 2 2 2 4 7 9 10 9 8 9 9 6 6 6 4 7 14 15 16 15 14 15 15 17 18 19 19 18 18 18 19 19 20 21 20 19 17 15 14 14 14 13 13 13 12 12 13 15 19 22 24 24 24 24 23 21 19 19 21 19 15 16 16 15 14 14 14 13 13 13 12 11 10 11 11 10 9 8 8 7 8 8 7 8 9 7 5 4 3 3 3 5 6 6 5
2 1 2 2 3 5 8 9 10 8 5 9 10 4 3 3 4 9 11 12 16 16 16 17 18 18 18 19 19 19 19 19 20 21 22 21 20 19 17 16 15 15 14 13 13 13 13 13 14 16 19 22 24 24 24 23 22 22 21 21 22 20 19 21 19 17 14 11 11 10 11 12 11 10 10 10 9 8 7 7 7 7 8 8 7 6 5 4 4 4 4 4 4 5 5 5 4
1 3 2 5 7 5 6 5 7 7 3 6 7 2 4 4 9 12 10 12 16 17 18 19 20 20 19 20 20 20 21 21 23 23 22 21 20 19 18 17 15 15 15 14 13 13 14 15 15 16 20 23 24 24 23 22 22 21 19 19 20 19 20 21 17 15 14 11 11 11 11 11 10 10 9 8 7 8 8 7 7 6 7 8 7 5 5 4 4 5 4 5 5 5 5 5 4
0 3 1 4 7 5 3 1 4 7 3 6 7 3 6 8 13 12 9 13 17 18 20 21 21 21 21 22 22 22 22 23 23 22 22 22 21 20 18 17 16 15 15 13 13 14 14 15 16 17 19 22 23 23 22 22 22 21 19 19 19 19 20 19 15 14 13 12 12 12 11 11 10 9 8 8 10 10 9 7 6 6 7 7 6 5 4 4 4 4 4 5 5 4 5 5 4
0 1 2 2 2 4 5 1 6 6 4 7 8 3 7 8 12 10 11 15 17 20 22 22 23 23 24 24 24 24 23 23 23 22 22 22 22 21 18 17 17 16 14 13 14 14 14 16 17 18 19 21 23 23 22 22 22 21 19 19 21 21 19 17 15 16 15 13 13 13 12 13 12 11 10 11 12 11 9 8 7 6 7 7 6 5 4 3 4 4 4 4 3 3 3 3 3
3 1 3 3 1 5 8 2 8 5 3 7 6 2 7 9 10 7 12 16 18 21 22 23 25 25 25 25 25 25 24 24 24 23 24 23 22 21 19 18 17 16 14 13 14 14 15 16 17 18 20 21 23 23 23 22 23 21 19 20 21 19 16 16 17 15 15 14 13 14 13 13 13 13 13 13 12 10 9 7 7 8 8 7 6 4 3 3 3 3 3 2 2 2 1 1 2
4 0 3 2 2 3 7 3 6 3 2 4 4 2 4 5 4 3 11 17 19 20 21 24 26 27 27 27 27 27 26 26 26 26 26 24 23 21 19 19 17 16 15 14 14 15 16 16 18 19 21 23 23 23 23 22 23 22 21 21 20 17 16 17 17 14 13 12 11 12 13 14 13 12 12 11 10 8 7 6 7 8 8 6 5 4 3 3 2 2 1 0 1 1 2 2 1
3 1 2 4 3 2 3 4 4 3 3 3 4 3 7 6 2 2 10 16 19 21 23 26 26 28 28 28 29 29 29 29 29 29 27 25 24 22 21 19 18 16 15 14 14 15 15 16 18 18 20 23 22 22 22 22 23 21 21 21 18 19 20 18 16 13 11 11 11 12 13 12 11 10 10 10 9 8 8 7 7 8 7 6 5 3 3 2 1 0 1 3 5 5 5 5 4
3 2 1 3 3 2 4 4 2 4 2 3 4 4 11 12 9 10 11 14 20 23 25 26 26 28 29 30 32 31 32 32 31 30 27 26 24 23 22 20 19 16 15 14 15 15 15 16 18 17 19 20 19 22 23 23 24 22 23 23 19 19 20 17 15 13 12 12 12 12 12 11 10 10 11 11 10 9 9 9 9 8 7 5 3 3 2 2 3 4 4 6 6 6 5 5 6
6 6 4 3 4 3 5 6 5 5 2 4 7 7 11 12 12 13 14 16 21 24 25 25 27 29 31 33 34 35 35 34 32 31 28 26 25 23 22 20 19 17 15 15 15 16 17 19 20 20 21 21 21 23 23 23 25 22 21 21 18 18 18 17 15 14 14 14 13 13 11 11 11 11 11 10 9 9 10 9 8 7 6 4 4 4 5 6 6 5 5 6 5 5 5 6 6
5 4 3 3 4 5 5 5 6 3 4 6 8 9 11 11 11 14 13 14 18 22 24 27 30 32 34 36 37 38 36 35 33 31 29 26 25 23 22 21 19 18 16 16 16 18 19 21 22 22 23 24 22 21 22 26 25 22 21 20 18 18 17 16 16 16 16 15 14 13 12 12 11 10 10 10 10 10 10 9 8 8 7 7 6 7 7 6 5 5 5 5 5 4 5 6 6
3 3 2 3 3 6 7 4 5 1 4 6 5 6 11 11 11 15 12 9 16 25 26 30 34 35 37 38 39 39 37 36 34 32 30 28 26 25 24 23 21 19 18 18 18 19 20 21 21 21 23 25 24 21 22 25 21 20 22 20 19 18 16 16 17 17 16 15 15 14 13 12 11 11 11 11 10 10 10 10 10 10 10 8 7 7 7 6 6 6 5 4 5 4 4 5 4
1 2 1 3 3 4 6 4 4 0 4 5 4 4 10 12 11 14 15 15 21 31 33 35 37 35 38 40 39 39 38 38 37 35 33 30 28 27 26 25 23 21 19 18 19 20 21 22 21 20 22 25 26 24 22 22 21 21 20 19 19 18 16 17 18 18 17 17 16 15 14 13 12 13 13 12 11 11 11 11 11 11 10 9 6 6 7 6 6 6 5 3 4 3 3 4 3
3 3 2 3 3 2 4 4 3 1 2 3 4 5 8 11 9 10 21 25 26 32 34 36 37 37 40 40 39 40 40 41 39 37 36 32 31 29 28 27 25 22 21 20 21 22 24 25 23 22 22 24 26 25 23 24 25 23 21 20 19 18 18 20 20 19 19 18 17 16 15 15 14 14 14 14 13 13 12 11 11 10 10 8 6 5 5 5 4 4 4 3 3 3 4 5 5
5 5 6 5 4 6 6 4 4 3 3 2 3 6 6 9 9 8 13 14 19 28 28 31 38 39 39 37 36 39 40 41 41 39 38 35 34 33 30 29 26 24 23 23 22 23 25 26 24 24 23 23 25 25 25 27 26 24 22 22 21 21 22 23 23 22 21 20 19 18 18 18 17 16 16 15 14 14 13 11 10 8 7 6 6 4 4 4 3 4 3 3 3 2 3 4 5
5 6 10 10 8 8 6 3 5 4 5 3 3 4 6 5 7 7 6 4 10 19 19 26 37 36 36 37 37 38 37 38 40 39 39 38 36 34 32 30 28 26 25 24 22 22 24 24 24 26 24 22 24 26 26 26 23 23 23 23 24 26 27 26 24 24 23 21 21 21 22 21 19 17 17 16 14 13 11 10 8 6 6 5 4 3 3 4 4 4 4 4 4 4 5 4 3
4 5 9 11 9 6 5 2 1 1 4 3 3 2 7 7 7 7 5 5 10 12 11 21 31 30 32 37 38 38 37 37 38 38 39 38 37 36 33 31 30 28 26 24 22 22 24 24 25 26 25 23 25 25 25 23 22 23 23 23 24 26 28 27 25 24 23 24 24 24 23 22 20 18 17 16 14 11 9 8 7 6 5 4 3 3 4 4 5 5 5 5 6 6 6 5 5
4 5 6 8 8 7 7 5 4 4 3 4 2 2 5 8 7 4 3 7 11 12 12 17 24 27 30 34 36 36 37 38 39 39 40 40 39 37 34 32 30 29 27 25 24 25 25 25 26 27 25 25 26 26 24 24 24 24 23 23 25 27 27 28 27 26 26 27 27 25 24 22 21 18 16 15 13 11 9 8 7 5 3 3 3 4 5 6 6 6 6 6 7 7 6 6 7
5 3 6 6 6 6 4 5 4 1 2 5 4 1 3 7 6 4 3 4 10 13 14 15 19 24 27 31 33 34 36 37 38 39 40 40 40 37 34 32 30 29 28 26 27 27 25 25 27 28 27 27 27 28 27 26 26 25 23 25 28 29 28 28 29 29 29 29 27 25 24 22 21 19 16 14 12 11 9 7 6 4 3 4 5 5 6 6 6 6 6 7 7 7 6 7 7
4 6 7 5 5 5 4 4 3 2 1 7 6 3 3 7 4 1 2 2 9 12 12 11 13 17 20 24 27 30 33 34 36 37 37 38 38 36 34 32 31 30 28 27 28 27 27 27 27 29 30 28 28 28 28 27 27 26 24 26 30 31 31 30 31 32 31 29 27 26 24 22 21 19 16 14 12 10 8 6 5 3 3 4 4 4 5 5 5 6 6 6 6 6 6 5 5
8 7 6 6 6 5 3 2 4 1 4 8 8 9 7 6 3 4 4 5 7 8 8 8 9 12 14 15 19 24 29 32 34 35 35 36 36 35 34 33 32 31 29 29 30 29 28 30 30 29 29 29 28 29 29 28 27 26 25 27 29 31 32 33 34 33 31 30 28 26 24 22 20 18 16 14 12 10 8 6 5 4 3 3 3 4 4 4 4 4 4 4 4 4 4 4 4
7 4 4 4 4 4 4 4 4 1 6 5 5 6 8 8 6 4 6 7 7 8 8 7 8 9 9 10 13 18 24 29 32 33 35 36 37 37 36 35 34 32 32 32 33 31 30 32 33 31 30 30 29 30 30 28 27 26 26 27 28 30 33 34 33 32 30 29 27 25 24 22 20 19 16 14 12 10 8 6 5 3 3 2 2 3 3 3 3 2 2 2 2 3 3 3 3
4 4 6 4 3 3 3 3 0 3 7 3 1 2 4 9 8 7 9 11 11 10 10 11 12 13 11 9 11 14 19 25 30 33 35 37 39 39 38 37 36 35 35 35 35 33 33 35 34 31 32 32 31 31 30 29 28 27 27 27 28 31 34 34 31 29 28 27 26 24 23 22 20 19 17 14 12 10 8 6 4 3 1 1 2 3 3 3 3 2 1 1 2 2 2 3 3
6 5 6 5 2 0 3 4 2 4 6 3 1 1 3 5 6 11 15 16 17 16 16 17 18 19 17 15 14 15 18 23 28 32 35 37 40 41 40 38 38 37 36 36 37 36 35 36 36 33 33 33 32 33 32 30 29 28 28 28 29 33 35 33 30 28 26 25 24 22 21 20 19 17 15 14 11 10 8 6 5 3 2 3 4 4 4 3 3 2 1 1 1 2 2 3 3
5 4 5 5 5 5 4 4 4 5 4 4 2 1 4 3 3 8 12 14 19 23 23 22 24 25 22 19 19 19 21 23 27 30 34 37 39 40 40 39 38 38 37 37 38 37 36 36 36 35 35 34 34 34 33 32 30 30 30 29 31 35 34 32 30 28 25 24 23 21 20 19 18 16 15 13 11 9 8 6 5 4 4 4 5 5 4 3 3 2 1 1 1 2 3 3 3
3 3 4 4 6 6 3 3 4 2 3 4 2 4 5 4 6 8 9 10 14 19 20 21 25 24 19 19 21 22 24 25 27 30 33 36 39 40 40 39 38 38 38 38 39 39 37 36 37 37 36 36 35 35 34 33 32 31 31 32 34 36 34 32 30 28 26 24 22 22 21 20 18 17 15 13 11 10 8 7 6 6 6 6 6 6 5 4 3 3 2 2 2 3 3 3 3
2 3 4 4 4 5 2 3 1 3 3 4 3 5 5 3 8 9 8 10 11 11 12 17 21 18 16 20 22 23 25 27 29 31 32 35 38 40 41 40 39 39 39 39 39 39 38 37 38 38 37 37 37 36 35 34 33 33 33 34 37 37 35 32 31 29 27 25 24 23 22 21 19 17 15 14 12 10 9 8 7 7 8 7 7 6 5 5 4 3 3 3 4 4 4 3 3
5 4 6 3 2 2 2 2 3 3 4 5 2 6 5 2 6 5 1 8 12 11 11 14 16 15 20 24 22 21 24 26 28 30 31 34 37 39 40 40 39 39 38 38 38 38 38 38 39 39 39 39 39 37 36 35 35 35 35 37 38 37 35 33 31 29 27 27 26 25 23 22 20 18 16 14 12 11 11 10 9 9 9 8 7 6 6 5 5 4 4 4 4 4 4 4 4
4 4 6 4 2 1 2 2 2 1 4 5 3 4 4 6 6 2 3 10 12 12 11 10 12 17 25 27 23 21 22 24 28 30 32 35 36 38 39 39 38 38 37 37 37 38 39 39 39 39 39 39 38 37 36 36 37 37 37 38 39 37 35 34 32 30 29 28 27 26 24 22 21 19 16 14 13 12 11 11 11 10 9 8 7 7 7 6 6 5 5 5 5 5 5 5 6
4 3 3 2 2 4 3 3 3 3 3 4 3 3 4 6 7 7 10 11 10 10 10 8 13 22 24 23 22 22 23 24 27 30 32 34 35 37 38 38 37 36 37 38 38 38 39 40 40 40 40 39 38 37 36 38 39 39 39 40 39 38 37 35 33 32 31 29 28 27 25 23 21 19 17 15 14 13 12 12 11 11 10 9 8 7 7 6 6 5 5 5 5 6 7 7 7
3 4 5 2 1 2 1 1 2 4 2 2 3 7 6 4 5 8 11 10 9 11 9 8 16 21 18 17 19 22 23 24 25 28 31 33 34 35 36 36 35 35 36 38 39 39 39 41 41 41 41 40 40 38 38 39 41 41 41 41 40 39 38 36 35 33 32 30 29 27 25 24 22 20 18 17 15 14 13 13 12 11 10 9 8 7 7 6 6 5 6 6 7 7 8 8 8
7 8 8 9 7 4 2 3 2 3 2 4 3 8 10 4 4 7 8 7 8 10 9 10 17 19 16 17 19 19 21 23 24 26 28 31 32 33 34 35 35 36 37 39 41 41 41 42 42 42 42 42 41 39 39 41 42 43 42 42 41 40 39 38 36 35 34 32 30 28 27 25 23 21 20 18 16 15 15 14 13 12 10 9 7 6 6 6 6 6 7 8 8 9 9 9 9
Wind_Direction
231 205 183 152 137 148 88 67 90 23 63 92 348 45 215 221 211 165 211 311 52 22 69 107 111 105 101 103 112 97 74 115 165 144 169 183 161 160 151 145 152 153 162 172 170 160 159 154 148 141 134 129 122 118 105 88 77 74 73 74 87 103 108 111 112 110 114 110 100 89 78 75 76 77 72 63 60 61 60 60 61 60 56 51 43 34 27 22 20 22 25 28 31 38 45 52 57
190 163 154 149 113 196 213 71 92 355 54 83 299 176 236 324 118 175 199 205 140 109 93 98 96 93 95 98 98 81 57 63 108 124 142 155 158 167 161 159 159 157 163 169 169 160 161 163 157 148 140 130 123 121 107 93 83 75 73 74 84 100 108 111 116 119 123 119 108 95 85 77 75 77 73 63 59 61 63 66 60 57 53 47 38 28 22 18 19 23 27 31 35 43 50 57 65
138 153 158 164 99 74 152 60 86 82 75 120 260 243 281 345 181 197 196 138 129 120 101 95 85 78 91 91 70 71 85 87 102 121 142 157 159 162 159 160 159 159 165 169 169 165 165 167 164 157 150 139 130 125 112 98 85 79 77 78 86 98 107 111 119 129 132 128 117 103 94 83 78 77 74 65 59 61 65 69 61 53 47 38 31 23 18 16 21 26 29 34 39 44 51 58 65
123 143 148 177 150 79 82 46 117 117 111 173 229 259 260 185 191 205 181 129 141 138 113 94 70 60 89 98 82 85 122 127 118 132 153 165 164 159 155 157 160 160 164 170 170 168 168 169 170 167 162 152 144 136 120 107 91 86 87 94 99 103 109 112 122 134 138 132 120 108 99 89 80 75 74 65 58 64 68 70 65 52 43 34 26 21 18 21 25 28 31 35 40 46 51 57 62
128 127 145 211 199 94 88 71 110 100 166 179 159 252 249 200 197 203 156 124 166 176 153 115 89 93 89 88 99 106 131 144 141 151 169 175 168 153 156 161 159 159 163 170 172 169 168 171 178 176 172 165 157 152 138 127 115 105 101 104 105 109 114 114 121 129 133 130 116 107 98 90 82 77 74 66 64 73 76 78 75 59 46 36 28 26 26 28 27 28 32 36 41 47 52 56 62
136 118 96 144 118 102 105 98 112 98 206 170 150 239 236 208 201 177 115 98 150 166 154 130 130 124 89 73 85 122 140 141 147 159 172 177 172 151 156 163 154 155 162 169 173 172 171 173 186 186 180 177 167 163 157 149 134 124 115 108 103 108 116 119 120 120 122 123 113 104 95 84 80 81 75 70 75 83 83 84 81 64 51 43 38 36 34 32 28 28 31 35 39 45 51 55 60
148 149 95 106 79 54 100 119 149 156 196 174 178 205 206 208 193 160 119 98 118 147 148 137 135 119 91 91 88 130 142 142 150 158 170 175 175 157 155 160 153 152 161 170 173 174 177 177 187 192 189 186 180 177 167 162 159 144 129 113 108 106 112 119 117 117 115 114 107 98 90 79 79 79 74 74 80 88 88 83 74 60 52 47 43 40 38 34 32 31 32 36 38 42 49 54 57
148 170 107 100 43 31 93 102 164 177 159 212 236 192 191 194 178 159 121 120 122 136 139 140 135 104 133 154 128 152 146 155 159 163 171 172 176 167 158 160 155 154 161 171 174 176 182 186 191 195 196 197 196 192 181 175 182 171 157 139 129 123 116 115 109 109 110 109 103 96 89 77 78 77 74 75 80 87 88 80 67 56 52 47 43 42 38 35 34 34 35 38 41 44 48 53 55
133 151 99 91 69 43 59 42 141 222 260 246 247 208 192 179 172 154 108 103 120 134 149 155 141 65 170 169 158 161 153 165 166 167 170 166 174 175 165 161 161 156 159 168 172 178 183 189 193 197 200 200 205 204 197 190 187 184 175 162 144 139 132 128 120 109 109 107 102 99 93 80 77 80 76 77 82 84 84 77 61 52 50 47 44 42 37 34 34 36 39 43 45 48 50 53 55
105 103 111 85 79 60 41 24 227 245 258 257 242 218 188 179 174 143 125 118 133 140 162 181 198 136 159 160 157 162 156 165 169 171 172 164 165 177 175 169 170 162 162 168 172 176 183 194 195 201 206 200 207 206 206 204 192 193 188 173 159 157 149 141 138 129 126 114 108 104 96 88 83 82 75 76 83 84 81 68 51 46 46 43 40 38 36 35 36 39 43 48 50 52 54 56 58
75 52 101 78 76 106 173 192 247 256 269 306 271 211 185 188 175 130 127 125 142 132 141 171 170 143 144 155 167 169 162 166 173 174 177 171 163 174 183 178 178 175 170 170 177 179 178 196 201 204 209 204 208 209 209 204 192 196 195 185 176 174 169 156 154 149 147 143 136 127 119 109 98 94 80 72 80 85 78 54 42 41 41 38 35 35 38 39 41 44 46 50 53 54 56 57 58
154 19 78 85 120 167 189 167 209 260 303 322 212 199 181 187 173 148 139 132 143 126 133 168 169 149 127 166 179 175 169 168 175 181 185 180 172 175 187 183 183 190 181 174 185 192 186 192 200 204 208 208 206 210 213 205 201 201 194 190 186 181 180 172 165 163 161 161 160 150 138 126 119 120 96 76 77 82 64 45 37 37 40 34 32 35 41 44 46 47 48 50 53 54 55 56 57
160 149 88 94 148 147 149 145 203 288 318 256 193 177 159 176 178 165 146 130 140 131 140 195 168 156 128 191 186 185 178 172 176 187 194 191 186 181 189 190 190 194 184 188 192 193 196 191 197 204 204 208 207 210 214 207 210 205 196 194 188 184 184 183 177 174 175 169 170 165 149 142 147 138 107 93 93 81 55 47 39 40 46 31 31 38 44 49 49 49 50 51 53 55 56 56 57
139 147 98 104 105 109 138 133 213 160 237 245 194 169 154 175 183 164 143 124 155 142 137 165 163 156 160 184 194 192 183 174 178 192 200 200 200 192 193 196 202 203 188 195 197 189 195 187 196 208 201 203 204 206 212 207 209 210 208 199 188 194 193 191 189 183 181 174 174 175 166 184 195 178 150 131 130 119 77 68 53 50 53 35 37 42 45 52 52 50 52 54 55 56 57 57 57
126 122 86 106 90 82 157 168 164 152 219 225 167 176 144 148 169 165 151 136 172 153 139 161 170 178 201 196 203 194 186 177 179 194 202 204 208 205 203 202 207 214 205 204 206 203 203 195 206 218 204 201 203 205 211 209 210 211 211 203 194 203 203 195 196 191 184 180 181 187 195 200 205 207 192 177 168 161 134 103 84 79 56 41 46 46 46 52 52 49 52 56 57 59 60 58 57
114 107 75 90 121 152 175 175 122 129 239 209 161 164 127 131 153 162 170 156 157 156 159 174 184 222 231 207 205 191 189 183 183 196 204 208 211 211 212 213 212 215 217 216 217 217 216 210 210 218 206 197 200 209 212 209 210 212 211 207 204 211 210 200 200 198 187 188 194 196 202 202 204 211 209 202 185 177 162 139 130 128 51 37 45 48 47 52 51 46 54 60 60 63 64 60 58
99 85 66 79 149 179 185 178 164 165 234 219 173 166 136 144 159 159 180 171 162 163 180 188 195 225 227 207 204 191 192 192 193 203 208 212 214 214 215 219 221 217 218 220 222 219 220 217 201 209 212 193 192 208 216 210 205 215 217 210 207 213 210 202 200 195 190 197 206 205 206 207 208 211 213 206 197 197 181 162 149 149 74 20 16 35 45 51 51 44 52 61 63 66 65 60 58
85 99 87 120 169 183 179 181 191 172 196 198 183 175 155 162 176 165 154 158 162 164 185 191 198 215 206 202 203 193 197 201 205 213 214 217 217 217 218 220 224 224 223 221 222 222 221 221 209 213 217 201 197 210 219 207 193 209 219 213 210 212 205 201 198 196 203 213 213 210 215 222 217 221 221 213 212 209 198 180 158 167 215 288 341 16 49 50 51 52 53 61 67 69 65 61 59
77 103 93 175 201 200 198 195 197 186 188 181 175 180 171 174 177 170 176 177 164 162 185 190 196 202 195 200 201 194 200 208 213 220 219 221 221 220 222 222 225 226 228 226 225 226 225 225 222 221 220 213 209 215 220 209 201 213 221 215 213 214 208 208 207 206 217 220 216 213 221 224 223 232 223 220 218 206 207 197 174 185 208 225 301 336 48 63 47 54 62 70 73 67 58 58 57
63 92 89 224 213 210 235 206 199 214 204 166 167 186 186 185 179 179 193 179 184 207 199 195 204 206 202 199 197 197 203 209 214 219 221 223 223 222 223 224 227 227 228 230 229 230 230 230 230 229 226 221 218 217 220 218 215 219 225 221 216 216 215 216 215 211 215 219 221 220 218 211 216 229 211 217 220 202 206 207 188 194 200 205 237 315 17 64 48 49 67 76 77 69 52 50 51
40 99 141 209 182 163 217 184 195 212 190 165 164 170 189 192 185 190 178 148 240 236 217 216 223 220 212 204 199 201 207 212 215 219 222 225 225 223 223 222 224 226 228 230 232 233 233 233 232 232 231 229 224 219 220 224 223 220 225 224 218 218 219 221 220 216 220 223 225 223 218 214 220 226 213 222 221 200 192 195 182 187 202 198 198 253 24 58 53 56 60 69 73 68 53 45 42
59 39 225 176 156 143 178 155 154 171 165 162 159 157 184 187 193 207 187 178 236 235 229 230 236 238 228 216 207 205 210 216 219 221 223 226 227 224 220 215 214 219 223 226 230 233 235 236 234 231 232 232 226 222 219 218 222 223 226 224 219 219 218 221 222 222 226 227 228 223 220 225 230 228 219 214 211 200 189 192 192 190 210 201 189 196 148 72 40 39 33 56 60 53 49 41 31
96 339 302 164 178 190 164 153 145 158 165 170 173 184 190 182 209 226 209 220 238 243 247 237 236 240 233 222 216 212 212 216 219 223 225 226 227 225 221 217 214 215 218 221 225 229 232 235 236 231 230 231 225 223 218 214 220 219 215 215 219 221 218 217 218 223 228 228 231 230 223 226 229 225 216 207 209 211 201 203 204 199 212 205 194 201 201 249 228 341 353 53 34 15 23 20 18
110 132 301 161 198 193 166 161 163 173 188 192 191 200 201 196 212 236 225 234 243 251 258 248 236 232 226 219 216 216 214 216 218 220 223 225 226 226 227 225 224 225 225 228 232 233 231 230 233 232 229 228 224 221 218 217 219 210 203 210 221 227 224 219 216 221 225 224 231 233 225 222 223 221 215 212 215 214 210 213 209 199 208 216 223 220 210 205 207 267 286 100 20 353 346 343 1
79 146 205 149 165 182 174 178 186 196 208 205 202 206 210 209 214 247 242 241 243 246 252 249 234 224 220 215 214 216 216 217 218 220 221 222 224 225 228 231 231 236 241 245 248 248 242 232 228 228 227 226 223 221 217 215 216 213 206 204 215 225 231 230 223 222 222 220 226 227 220 217 216 219 218 219 219 211 212 218 220 214 211 229 235 218 208 211 225 252 244 190 298 276 299 311 339
97 146 169 157 169 186 193 208 206 209 213 201 201 215 225 217 227 261 250 244 244 241 240 238 229 220 216 212 214 217 220 222 222 222 223 222 223 226 228 232 238 244 250 253 256 256 251 239 227 224 225 223 221 220 218 214 214 216 206 195 207 215 223 227 224 226 226 218 218 216 216 215 213 221 225 225 224 218 221 228 234 229 219 234 235 226 234 244 245 242 240 254 249 267 289 303 332
143 134 163 193 221 227 218 223 220 216 216 208 202 217 235 211 201 253 245 237 237 233 227 225 221 219 216 214 216 220 224 227 227 227 226 225 224 227 231 234 241 247 251 254 256 258 254 245 233 224 221 220 221 220 219 216 214 213 202 191 200 206 204 206 213 224 227 219 216 217 219 221 225 231 230 226 224 223 227 235 237 229 229 237 228 225 237 244 243 232 240 247 248 281 294 305 331
125 93 264 281 321 278 237 229 227 214 222 220 206 218 248 176 191 242 241 229 230 228 222 220 218 219 219 220 223 226 230 229 230 230 229 230 228 230 234 236 241 246 251 254 255 255 252 246 236 226 220 218 219 218 217 215 211 210 204 199 207 212 206 209 221 224 222 220 214 215 223 230 232 227 221 219 220 225 233 246 248 239 236 230 210 207 213 211 232 235 232 239 253 276 288 302 320
79 51 299 305 357 324 248 242 221 197 216 210 183 263 277 202 222 238 235 221 221 221 220 221 219 220 223 226 231 233 236 234 233 232 230 229 229 231 233 236 241 245 249 251 252 250 246 242 236 226 217 214 217 215 212 210 207 208 206 203 211 211 207 215 223 218 219 218 206 209 219 224 222 213 211 218 235 252 254 252 247 230 215 212 206 208 208 206 224 232 235 246 258 273 291 309 317
45 55 33 318 359 334 269 353 183 178 193 172 151 270 270 242 241 235 224 216 211 211 217 221 222 223 226 229 234 236 237 238 237 233 229 227 229 232 233 237 240 243 247 246 248 247 239 236 232 224 215 211 213 212 211 210 208 210 205 197 200 205 209 218 219 210 215 215 209 212 212 214 218 219 225 235 247 256 250 234 224 209 193 195 197 199 205 209 223 236 248 257 268 283 303 319 319
357 28 28 4 360 280 292 26 154 157 199 175 147 251 266 268 263 240 226 219 210 213 217 221 224 226 229 231 234 237 239 239 238 231 227 229 231 232 234 237 239 241 244 244 244 243 233 229 225 220 213 206 208 210 208 208 206 208 210 205 207 213 217 222 218 211 216 219 217 216 214 215 222 230 239 246 248 245 234 219 204 188 181 187 189 191 208 224 235 245 249 256 271 286 305 316 313
32 359 307 343 165 265 308 284 171 157 197 177 152 243 268 277 279 248 220 213 211 219 222 223 227 228 230 233 235 237 239 236 233 228 226 229 230 232 234 236 239 240 241 241 239 235 229 223 216 213 208 202 205 207 205 206 207 207 208 203 202 209 211 208 208 213 226 231 221 215 216 216 221 230 239 244 242 231 221 208 186 175 181 193 194 198 210 220 229 235 234 247 271 280 295 288 282
1 68 244 268 174 267 319 298 204 186 134 179 196 244 271 284 298 223 204 207 210 218 227 228 230 232 232 234 236 236 236 233 231 229 227 229 231 232 233 235 238 238 238 236 232 230 226 217 209 206 203 201 202 205 206 207 206 205 204 201 202 206 202 202 211 221 231 225 211 207 210 213 219 225 228 225 214 201 191 187 182 179 184 186 182 185 192 202 215 236 246 183 68 73 94 106 119
315 2 241 238 196 206 295 312 254 191 134 210 224 233 252 261 295 206 204 208 211 218 231 234 233 234 235 236 237 237 236 233 232 232 230 231 232 232 233 234 236 236 235 231 225 223 219 212 209 203 199 203 206 206 203 200 201 206 209 210 218 219 213 215 220 220 218 207 198 200 203 205 206 205 199 187 177 174 173 178 181 173 166 161 163 178 190 209 210 184 100 108 98 92 100 103 104
201 195 206 259 255 215 245 287 245 162 145 228 199 234 256 264 272 255 234 217 215 225 234 237 237 237 238 238 238 238 237 235 235 234 232 232 232 233 233 234 234 234 234 228 219 215 212 209 207 200 199 205 204 200 199 200 205 211 212 213 219 217 213 213 209 204 204 198 191 191 192 188 182 177 170 161 160 167 168 170 170 160 152 155 172 193 180 151 122 109 105 104 101 101 101 101 102
163 175 162 210 249 256 232 251 250 178 163 232 212 228 249 260 268 258 244 224 221 234 240 239 240 240 240 240 239 239 239 239 237 233 232 233 233 233 232 233 234 233 231 226 216 208 205 206 206 200 201 203 196 196 205 207 205 206 207 208 206 200 201 203 198 197 195 188 183 181 179 174 171 168 162 157 161 168 169 169 168 161 154 155 158 154 139 125 115 107 99 93 91 98 98 99 101
127 133 149 206 225 267 251 252 281 191 166 244 225 228 249 251 261 265 251 224 221 235 241 240 240 239 240 240 240 240 240 241 238 233 232 232 232 231 230 230 230 229 226 221 214 207 203 205 210 205 199 199 200 207 214 208 205 211 213 210 207 204 207 206 195 190 185 179 176 173 169 169 169 169 165 165 170 176 177 173 169 160 144 136 137 133 126 118 109 96 85 81 78 75 85 96 102
100 124 194 258 221 255 254 242 294 184 170 263 245 233 258 253 254 265 252 205 222 233 234 240 241 239 240 240 240 240 240 240 236 233 230 229 229 227 226 227 226 226 222 218 212 208 205 203 210 211 202 201 205 210 212 209 210 215 214 214 214 211 207 198 189 183 179 174 172 168 169 172 171 173 171 169 171 174 175 166 157 146 134 136 142 134 123 114 102 90 76 73 78 66 70 91 101
114 129 172 266 245 275 281 273 314 102 177 268 293 260 265 260 251 256 245 224 235 240 238 244 244 241 241 240 239 239 237 236 234 231 229 226 227 224 223 224 224 224 221 219 212 206 207 204 206 208 203 204 205 204 209 213 213 211 210 210 208 207 198 189 187 182 177 175 174 172 174 175 174 172 163 158 159 157 158 154 147 145 144 148 146 128 118 109 98 94 88 74 80 83 91 108 118
202 174 168 246 246 269 280 290 323 353 196 268 306 296 276 268 256 248 246 239 245 250 247 249 248 245 246 246 244 241 237 235 232 229 226 223 223 222 222 222 222 221 218 216 211 205 206 206 206 205 202 205 206 208 211 208 205 203 204 206 206 207 197 188 185 181 178 179 178 177 176 171 166 159 149 148 152 150 151 152 151 153 150 139 119 101 96 91 82 83 79 61 64 85 105 122 137
244 204 195 220 226 218 231 288 329 338 342 4 344 305 277 264 258 249 256 249 252 256 252 251 250 247 248 249 248 245 239 237 234 229 226 222 223 223 222 220 220 220 219 218 215 209 206 206 206 203 202 206 208 211 208 198 196 199 202 206 206 203 194 188 187 182 179 181 180 175 167 159 154 151 149 152 156 156 155 154 150 143 128 107 90 78 63 56 47 38 32 32 36 51 76 102 126
271 228 204 213 218 225 239 324 2 358 323 341 27 305 274 278 269 255 279 304 262 258 250 248 251 249 246 245 245 243 240 238 236 234 230 225 223 223 221 219 219 221 222 222 217 210 207 205 204 202 202 205 204 202 197 192 198 208 215 214 205 198 192 187 188 185 180 178 175 167 158 153 155 158 158 159 160 159 155 147 135 120 104 92 81 58 33 29 23 19 20 18 14 24 39 50 75
266 245 205 210 210 215 231 195 79 275 263 290 69 233 271 301 284 251 254 269 261 260 252 250 252 249 244 244 244 242 238 235 233 232 229 224 223 222 221 220 221 222 221 218 212 208 206 202 201 201 199 200 198 194 196 201 210 221 228 223 207 200 193 185 184 187 180 174 169 162 158 157 161 165 163 161 159 155 149 138 126 114 101 87 66 37 25 25 17 14 17 15 12 21 27 20 25
237 251 181 187 189 198 209 177 190 233 262 312 18 163 271 287 276 265 247 258 270 269 262 257 254 250 247 247 246 242 239 236 233 229 225 222 223 224 225 223 222 221 218 215 208 204 206 203 200 201 201 203 204 206 213 218 221 225 227 217 205 201 197 187 181 181 176 171 167 164 163 164 165 167 165 161 157 152 146 136 125 116 99 74 59 43 25 20 13 12 16 13 13 17 16 7 5
245 218 132 150 163 169 162 145 191 290 18 297 287 130 267 268 264 317 341 253 267 268 260 259 257 254 253 252 249 243 240 237 234 231 227 224 223 224 225 224 222 219 217 214 208 204 205 203 202 204 207 208 210 214 219 217 217 223 222 211 202 198 197 190 180 176 173 171 170 168 169 169 167 167 165 163 159 152 146 138 128 115 91 70 59 35 14 13 10 9 13 13 14 13 8 2 357
196 133 94 79 79 82 84 111 135 43 344 252 240 162 242 266 237 266 5 230 250 262 261 263 265 261 257 256 251 244 238 235 233 232 231 227 224 222 222 221 219 218 215 212 208 205 203 203 204 203 204 207 209 210 212 212 215 220 218 208 200 196 195 189 179 174 174 173 174 173 172 171 169 168 167 164 160 154 148 141 130 114 91 69 45 14 359 360 360 2 4 4 3 360 359 359 353
133 110 66 49 33 42 48 52 83 30 271 243 222 187 200 265 254 198 211 213 226 247 265 276 276 264 257 257 252 242 236 232 230 229 228 225 221 218 218 218 218 216 212 208 207 207 204 205 206 202 203 207 209 208 212 216 217 217 212 204 201 199 194 187 179 176 176 177 178 177 174 173 172 170 169 166 162 156 152 145 135 121 90 58 18 348 340 338 343 347 342 342 345 346 352 355 351
121 89 79 70 347 10 20 357 51 253 257 247 232 191 188 238 260 230 239 250 237 231 246 267 275 272 266 260 253 243 236 233 229 226 224 220 216 214 214 215 216 213 209 206 207 209 206 203 204 203 206 209 210 211 214 215 212 209 207 204 206 204 195 187 183 181 180 181 182 181 177 176 175 173 172 169 164 159 156 151 140 122 85 41 336 312 306 306 307 300 300 318 334 339 344 344 348
112 99 109 105 326 352 343 310 84 235 256 278 349 126 200 240 252 251 257 264 254 236 233 242 256 267 273 274 264 249 237 232 228 225 222 219 215 214 213 214 214 213 211 208 207 209 206 203 205 208 209 209 210 212 212 211 209 208 206 206 208 204 196 190 188 186 185 185 186 186 184 183 181 178 174 171 168 163 158 155 144 124 102 295 278 270 264 261 257 255 276 309 320 326 331 338 342
162 145 142 146 147 219 273 270 271 265 269 297 359 158 250 266 257 239 237 245 250 254 257 256 259 263 265 270 270 258 243 233 229 225 223 221 217 215 215 214 214 214 213 210 207 207 206 206 209 212 211 209 210 210 210 210 209 208 208 208 207 201 196 194 192 191 190 189 190 190 190 188 185 182 176 172 172 168 163 159 149 148 185 241 247 243 239 233 234 241 253 278 303 317 320 325 321
185 152 141 161 159 173 220 220 232 261 286 299 286 198 204 207 251 241 237 254 260 261 265 267 267 266 264 261 257 251 242 233 228 226 224 223 219 217 216 216 216 216 214 211 208 206 207 207 209 210 209 209 210 210 210 210 210 209 208 208 204 200 198 198 195 194 194 193 192 191 191 188 185 182 177 175 175 172 170 166 162 177 209 230 232 229 226 219 218 218 217 252 283 288 293 294 287
225 116 123 193 183 171 214 209 181 191 300 295 230 223 217 210 270 268 257 271 267 259 262 263 264 266 264 256 248 243 239 233 227 225 224 223 220 218 217 217 217 216 216 213 209 207 206 206 207 209 210 211 211 211 211 212 211 209 207 204 200 199 200 200 197 196 196 194 193 193 192 188 185 184 181 180 181 176 175 176 178 194 212 223 223 218 214 205 201 203 210 241 256 255 261 264 267
169 135 176 207 170 151 196 264 59 80 272 270 200 239 287 310 281 270 247 255 265 267 263 255 256 262 262 253 244 239 237 233 229 225 224 222 220 218 218 217 217 217 216 215 213 209 207 206 207 208 210 211 212 213 213 213 211 207 204 200 199 200 202 203 200 197 195 194 193 194 194 190 186 186 186 185 186 184 180 182 189 203 214 218 216 208 201 195 194 202 216 233 241 243 250 256 264
127 179 198 160 84 98 126 253 346 43 258 272 219 238 274 274 272 301 189 234 256 262 255 255 260 259 254 251 244 238 237 235 231 227 225 224 221 219 218 218 218 218 219 219 216 212 208 208 209 210 211 210 211 213 213 212 209 204 201 198 199 202 204 204 201 199 198 197 196 196 195 193 188 187 189 189 190 188 185 187 195 208 215 213 209 200 193 194 199 208 218 228 232 237 249 260 263
125 176 177 128 128 205 123 174 234 209 253 283 286 261 248 207 228 285 194 217 236 250 254 262 264 251 248 248 242 236 234 231 229 226 224 223 221 220 218 218 219 219 220 220 218 213 209 209 210 212 214 212 212 213 212 211 206 201 199 198 201 203 204 204 202 200 201 201 201 200 196 194 192 192 193 194 194 191 190 194 201 210 213 209 203 197 195 199 203 211 219 225 234 242 253 260 262
50 100 146 117 147 177 164 165 174 173 234 284 313 302 249 211 205 200 215 221 217 236 252 254 252 252 252 249 242 237 233 231 230 227 227 225 222 221 220 220 220 219 220 220 218 214 210 209 210 213 215 215 214 214 212 209 204 200 199 200 203 205 205 204 203 203 204 205 206 204 199 196 197 197 197 197 197 195 197 202 207 211 211 205 200 196 198 202 205 215 225 231 241 248 255 259 262
149 155 171 183 108 105 156 195 134 136 173 232 289 286 264 226 194 194 211 220 206 217 231 238 249 256 265 265 254 245 239 236 234 231 229 227 223 222 220 220 221 220 220 220 218 216 212 210 211 213 214 214 214 213 212 209 203 199 199 202 205 206 205 205 205 205 206 208 208 206 202 201 201 201 202 202 201 199 201 207 211 211 208 203 201 199 201 207 214 224 230 238 246 249 254 259 263
178 184 188 184 171 146 168 236 207 131 182 187 192 276 272 233 188 201 206 205 205 217 220 239 259 264 273 278 269 257 246 241 238 235 232 230 225 223 221 219 219 219 219 218 217 216 214 211 212 213 214 214 213 213 210 208 205 201 201 204 206 207 206 206 206 206 207 209 209 207 205 204 204 204 205 205 204 204 205 209 211 211 208 205 204 205 208 215 225 233 237 243 247 249 253 259 263